This demonstration page uses our WeatherBlox Daily Observations layout. Learn more.

Left ArrowRight Arrow

Hourly Observations for January 7, 2017

Temp ( °F °C ) Dew Point ( °F °C ) Humidity (%) Winds ( mph kmh ) Pressure ( in mb ) Visibility ( mi km ) Precip ( " mm )
12:15 am 00:15 Clear 8 -13.5 -2 -18.7 65 65 WNW 9 15 30.56 1035 10 16 0.00 0.00
12:35 am 00:35 Clear 7 -13.8 -2 -18.8 66 66 WNW 8 13 30.56 1035 10 16 0.00 0.00
12:55 am 00:55 Clear 6 -14.7 -3 -19.2 69 69 WNW 8 13 30.56 1035 10 16 0.00 0.00
1:15 am 01:15 Clear 7 -14.1 -2 -19 67 67 NW 10 17 30.56 1035 10 16 0.00 0.00
1:35 am 01:35 Clear 6 -14.2 -2 -19 67 67 WNW 8 13 30.56 1035 10 16 0.00 0.00
1:55 am 01:55 Clear 6 -14.7 -3 -19.2 69 69 WNW 9 15 30.59 1036 10 16 0.00 0.00
2:15 am 02:15 Clear 3 -16.2 -5 -20.4 70 70 WNW 9 15 30.62 1037 10 16 0.00 0.00
2:35 am 02:35 Clear 2 -16.9 -5 -20.8 72 72 NW 8 13 30.62 1037 10 16 0.00 0.00
2:55 am 02:55 Clear 1 -17 -5 -20.8 73 73 NW 8 13 30.65 1038 10 16 0.00 0.00
3:15 am 03:15 Clear 3 -16.2 -4 -20.2 72 72 WNW 6 9 30.65 1038 10 16 0.00 0.00
3:35 am 03:35 Clear 2 -16.6 -5 -20.7 71 71 WNW 8 13 30.68 1039 10 16 0.00 0.00
3:55 am 03:55 Clear 1 -17.5 -6 -21.1 74 74 WNW 7 11 30.71 1040 10 16 0.00 0.00
4:15 am 04:15 Clear 1 -17.5 -6 -21.1 74 74 WNW 6 9 30.71 1040 10 16 0.00 0.00
4:35 am 04:35 Clear 1 -17.4 -6 -21.1 73 73 WNW 7 11 30.71 1040 10 16 0.00 0.00
4:55 am 04:55 Clear 0 -17.7 -7 -21.4 73 73 WNW 8 13 30.71 1040 10 16 0.00 0.00
5:15 am 05:15 Clear 0 -18 -7 -21.5 74 74 WNW 8 13 30.71 1040 10 16 0.00 0.00
5:35 am 05:35 Clear 0 -17.9 -6 -21.3 75 75 WNW 8 13 30.71 1040 10 16 0.00 0.00
5:55 am 05:55 Clear 0 -17.6 -6 -21.2 74 74 WNW 7 11 30.74 1041 10 16 0.00 0.00
6:15 am 06:15 Clear -1 -18.5 -8 -22 74 74 NW 8 13 30.74 1041 10 16 0.00 0.00
6:35 am 06:35 Clear 0 -17.7 -6 -21 76 76 NNW 7 11 30.74 1041 10 16 0.00 0.00
6:55 am 06:55 Clear 1 -17.5 -6 -21.1 74 74 NW 7 11 30.74 1041 10 16 0.00 0.00
7:15 am 07:15 Clear 1 -17.5 -6 -21 74 74 NNW 8 13 30.77 1042 10 16 0.00 0.00
7:35 am 07:35 Clear 1 -17.5 -6 -21 74 74 NW 7 11 30.77 1042 10 16 0.00 0.00
7:55 am 07:55 Clear -1 -18.2 -6 -21.3 77 77 NW 7 11 30.77 1042 10 16 0.00 0.00
8:15 am 08:15 Sunny -1 -18.3 -6 -21.3 77 77 NW 6 9 30.77 1042 10 16 0.00 0.00
8:35 am 08:35 Sunny 0 -17.6 -5 -20.7 77 77 NNW 7 11 30.77 1042 10 16 0.00 0.00
8:55 am 08:55 Sunny 1 -17.2 -5 -20.6 75 75 NW 6 9 30.80 1043 10 16 0.00 0.00
9:15 am 09:15 Sunny 4 -15.7 -3 -19.3 74 74 NNW 7 11 30.77 1042 10 16 0.00 0.00
9:35 am 09:35 Sunny 6 -14.6 -1 -18.4 73 73 NNW 5 7 30.77 1042 10 16 0.00 0.00
9:55 am 09:55 Sunny 8 -13.3 1 -17.2 73 73 N 5 7 30.80 1043 10 16 0.00 0.00
10:15 am 10:15 Sunny 9 -12.9 1 -17 72 72 N 9 15 30.77 1042 10 16 0.00 0.00
10:35 am 10:35 Sunny 9 -12.6 2 -16.6 72 72 N 10 17 30.77 1042 10 16 0.00 0.00
10:55 am 10:55 Sunny 10 -12.5 2 -16.7 71 71 N 9 15 30.80 1043 10 16 0.00 0.00
11:15 am 11:15 Sunny 10 -12.3 2 -16.6 71 71 NNE 8 13 30.80 1043 10 16 0.00 0.00
11:35 am 11:35 Sunny 11 -11.8 3 -16.2 70 70 NNE 6 9 30.80 1043 10 16 0.00 0.00
11:55 am 11:55 Sunny 12 -10.9 4 -15.3 70 70 NNE 3 6 30.80 1043 10 16 0.00 0.00
12:15 pm 12:15 Sunny 13 -10.3 5 -15.1 68 68 NNE 3 6 30.80 1043 10 16 0.00 0.00
12:35 pm 12:35 Sunny 14 -10.1 5 -14.9 68 68 ENE 3 6 30.77 1042 10 16 0.00 0.00
12:55 pm 12:55 Sunny 14 -10.1 5 -15 68 68 Calm 30.77 1042 10 16 0.00 0.00
1:15 pm 13:15 Sunny 14 -9.9 5 -14.8 68 68 ENE 3 6 30.74 1041 10 16 0.00 0.00
1:35 pm 13:35 Sunny 15 -9.7 6 -14.7 67 67 ENE 3 6 30.74 1041 10 16 0.00 0.00
1:55 pm 13:55 Sunny 15 -9.5 6 -14.5 67 67 ENE 5 7 30.74 1041 10 16 0.00 0.00
2:15 pm 14:15 Sunny 15 -9.2 6 -14.2 67 67 Calm 30.74 1041 10 16 0.00 0.00
2:35 pm 14:35 Sunny 16 -9.1 6 -14.3 66 66 Calm 30.74 1041 10 16 0.00 0.00
2:55 pm 14:55 Sunny 16 -9 7 -14 67 67 Calm 30.74 1041 10 16 0.00 0.00
3:15 pm 15:15 Sunny 16 -8.7 7 -13.7 67 67 Calm 30.74 1041 10 16 0.00 0.00
3:35 pm 15:35 Sunny 17 -8.6 7 -13.7 67 67 ESE 3 6 30.74 1041 10 16 0.00 0.00
3:55 pm 15:55 Sunny 17 -8.5 7 -13.7 66 66 E 3 6 30.74 1041 10 16 0.00 0.00
4:15 pm 16:15 Sunny 16 -8.9 7 -13.8 68 68 E 3 6 30.74 1041 10 16 0.00 0.00
4:35 pm 16:35 Sunny 16 -8.9 7 -13.8 68 68 ENE 3 6 30.74 1041 10 16 0.00 0.00
4:55 pm 16:55 Sunny 14 -9.8 7 -14.1 71 71 ENE 5 7 30.74 1041 10 16 0.00 0.00
5:15 pm 17:15 Sunny 12 -11 5 -14.9 73 73 E 6 9 30.77 1042 10 16 0.00 0.00
5:35 pm 17:35 Clear 11 -11.4 5 -15.2 74 74 E 6 9 30.77 1042 10 16 0.00 0.00
5:55 pm 17:55 Clear 10 -12.5 3 -15.9 76 76 E 6 9 30.77 1042 10 16 0.00 0.00
6:15 pm 18:15 Clear 10 -12.2 5 -15.2 79 79 E 7 11 30.77 1042 10 16 0.00 0.00
6:35 pm 18:35 Clear 9 -12.6 3 -16 76 76 E 8 13 30.77 1042 10 16 0.00 0.00
6:55 pm 18:55 Clear 8 -13.3 2 -16.5 77 77 E 7 11 30.80 1043 10 16 0.00 0.00
7:15 pm 19:15 Clear 7 -14 1 -17.1 78 78 E 8 13 30.80 1043 10 16 0.00 0.00
7:35 pm 19:35 Clear 6 -14.7 0 -17.7 78 78 E 9 15 30.80 1043 10 16 0.00 0.00
7:55 pm 19:55 Clear 5 -14.8 1 -17.5 80 80 ESE 9 15 30.80 1043 10 16 0.00 0.00
8:15 pm 20:15 Clear 4 -15.6 -1 -18.3 80 80 ESE 6 9 30.80 1043 10 16 0.00 0.00
8:35 pm 20:35 Clear 4 -15.7 -1 -18.5 79 79 ESE 8 13 30.80 1043 10 16 0.00 0.00
8:55 pm 20:55 Clear 4 -15.6 -1 -18.1 81 81 ESE 9 15 30.80 1043 10 16 0.00 0.00
9:15 pm 21:15 Clear 4 -15.5 -1 -18.1 81 81 SE 8 13 30.80 1043 10 16 0.00 0.00
9:35 pm 21:35 Clear 5 -15.2 0 -17.7 81 81 SSE 5 7 30.77 1042 10 16 0.00 0.00
9:55 pm 21:55 Clear 3 -15.9 -1 -18.4 81 81 SE 8 13 30.77 1042 10 16 0.00 0.00
10:15 pm 22:15 Clear 4 -15.7 -1 -18.2 81 81 SSE 6 9 30.77 1042 10 16 0.00 0.00
10:35 pm 22:35 Clear 4 -15.7 -1 -18.1 82 82 SSE 8 13 30.77 1042 10 16 0.00 0.00
10:55 pm 22:55 Clear 5 -15 0 -17.6 81 81 SSE 9 15 30.74 1041 10 16 0.00 0.00
11:15 pm 23:15 Clear 4 -15.3 0 -17.9 81 81 SSE 7 11 30.74 1041 10 16 0.00 0.00
11:35 pm 23:35 Clear 5 -14.9 1 -17.1 83 83 SE 12 19 30.74 1041 10 16 0.00 0.00
11:55 pm 23:55 Clear 6 -14.5 2 -16.9 82 82 SE 13 20 30.71 1040 10 16 0.00 0.00

Powered by AerisWeather